Tracking 23585 objects as of 4-Aug-2021
HD Live streaming from Space Station
objects crossing your sky now

SL-12 R/B(2)

Track SL-12 R/B(2) now!


NORAD ID: 17875
Int'l Code: 1984-090F
Perigee: 35,437.5 km
Apogee: 35,598.7 km
Inclination: 11.3 °
Period: 1,422.0 minutes
Semi major axis: 41889 km
RCS: 2.018 m2 (large)
Launch date: August 24, 1984
Source: Commonwealth of Independent States (former USSR) (CIS)
Launch site: TYURATAM MISSILE AND SPACE COMPLEX (TTMTR)

Note: This is a ROCKET BODY
aabbcc
Your satellite tracking list
Your tracking list is empty




NASA's NSSDC Master Catalog

Two Line Element Set (TLE):
1 17875U 84090F   21216.18747046  .00000056  00000-0  00000-0 0  9999
2 17875  11.3111 321.4945 0019231 121.2471 331.2719  1.01263152138863
Source of the keplerian elements: AFSPC